Weather History for Bradshaw AFB, HI

Change the Weather History Date:

Saturday, August 24, 2013

  Actual Average Record
Temperature  
Mean Temperature 58 °F -  
Max Temperature 73 °F 71 °F 77 °F (2011)
Min Temperature 43 °F 50 °F 41 °F (1997)
Degree Days  
Heating Degree Days 7    
Growing Degree Days 8 (Base 50)    
Moisture  
Dew Point 32 °F    
Average Humidity 35    
Maximum Humidity 80    
Minimum Humidity 13    
Precipitation  
Precipitation 0.00 in - - ()
Sea Level Pressure  
Sea Level Pressure 30.31 in    
Wind  
Wind Speed 8 mph (SSE)    
Max Wind Speed 21 mph    
Max Gust Speed 32 mph    
Visibility 12 miles    
Events      
Averages and records for this station are not official NWS values.
T = Trace of Precipitation, MM = Missing Value Source: NWS Daily Summary

Daily Weather History Graph

Daily Weather History Graph

Search for Another Location

Airport:

Trip Planner

Search our weather history database for the weather conditions in past years. The results will help you decide how hot, cold, wet, or windy it might be!

Date:

Astronomy

Aug. 24, 2013 Rise Set
Actual Time 6:05 AM HST 6:43 PM HST
Civil Twilight 5:42 AM HST 7:06 PM HST
Nautical Twilight 5:16 AM HST 7:32 PM HST
Astronomical Twilight 4:49 AM HST 7:59 PM HST
Moon 9:28 PM HST (8/24) 9:34 AM HST (8/24)
Length of Visible Light 13h 23m
Length of Day
12h 38m
Waning Gibbous, 82% of the Moon is Illuminated
Aug 24
Waning Gibbous
Aug 27
Last Quarter
Sep 5
New
Sep 12
First Quarter
Sep 19
Full

Hourly Weather History & Observations

Time (HST) Temp. Windchill Dew Point Humidity Pressure Visibility Wind Dir Wind Speed Gust Speed Precip Events Conditions
12:56 AM 49.3 °F - 39.7 °F 70% 30.32 in 12.0 mi ESE 3.5 mph - N/A   Clear
1:56 AM 47.7 °F - 34.2 °F 60% 30.30 in 12.0 mi ESE 4.6 mph - N/A   Clear
2:56 AM 47.8 °F - 34.3 °F 60% 30.30 in 12.0 mi SW 1.2 mph - N/A   Clear
3:56 AM 50.0 °F - 37.8 °F 63% 30.31 in 12.0 mi North 1.2 mph - N/A   Clear
4:56 AM 44.1 °F - 38.1 °F 80% 30.30 in 12.0 mi NNE 2.3 mph - N/A   Clear
5:56 AM 43.5 °F 40.9 °F 30.6 °F 60% 30.31 in 4.0 mi East 4.6 mph - N/A   Clear
6:56 AM 49.1 °F - 28.8 °F 45% 30.32 in 9.0 mi ESE 3.5 mph - N/A   Clear
7:56 AM 60.6 °F - 30.9 °F 33% 30.32 in 12.0 mi WSW 3.5 mph - N/A   Clear
8:56 AM 65.7 °F - 27.7 °F 24% 30.33 in 12.0 mi SW 6.9 mph - N/A   Clear
9:56 AM 70.5 °F - 17.4 °F 13% 30.33 in 12.0 mi SE 15.0 mph 24.2 mph N/A   Clear
10:56 AM 72.3 °F - 21.7 °F 15% 30.33 in 12.0 mi SSE 16.1 mph 25.3 mph N/A   Partly Cloudy
11:22 AM 71.6 °F - 23.0 °F 16% 30.33 in 12.0 mi South 12.7 mph 24.2 mph N/A   Partly Cloudy
11:52 AM 71.6 °F - 28.4 °F 20% 30.33 in 12.0 mi South 13.8 mph 26.5 mph N/A   Partly Cloudy
11:56 AM 71.6 °F - 31.3 °F 23% 30.32 in 12.0 mi SSE 13.8 mph 26.5 mph N/A   Partly Cloudy
12:40 PM 71.6 °F - 28.4 °F 20% 30.31 in 12.0 mi SE 16.1 mph 26.5 mph N/A   Clear
12:57 PM 72.9 °F - 32.0 °F 22% 30.31 in 12.0 mi SSE 15.0 mph 23.0 mph N/A   Clear
1:11 PM 73.4 °F - 30.2 °F 20% 30.31 in 12.0 mi South 13.8 mph 25.3 mph N/A   Clear
1:56 PM 72.1 °F - 34.9 °F 26% 30.29 in 12.0 mi South 11.5 mph 21.9 mph N/A   Clear
2:05 PM 73.4 °F - 33.8 °F 23% 30.29 in 12.0 mi SSE 16.1 mph 25.3 mph N/A   Partly Cloudy
2:17 PM 73.4 °F - 35.6 °F 25% 30.29 in 12.0 mi South 16.1 mph 26.5 mph N/A   Partly Cloudy
2:18 PM 73.4 °F - 33.8 °F 23% 30.29 in 12.0 mi SSW 12.7 mph 26.5 mph N/A   Partly Cloudy
2:20 PM 73.4 °F - 33.8 °F 23% 30.28 in 12.0 mi SSE 16.1 mph 26.5 mph N/A   Partly Cloudy
2:56 PM 73.9 °F - 28.2 °F 18% 30.27 in 10.0 mi SSE 18.4 mph 29.9 mph N/A   Clear
3:56 PM 73.6 °F - 36.3 °F 26% 30.25 in 11.0 mi SSE 20.7 mph 32.2 mph N/A   Clear
4:56 PM 71.6 °F - 35.1 °F 26% 30.26 in 12.0 mi SSE 18.4 mph 32.2 mph N/A   Clear
5:56 PM 69.4 °F - 35.8 °F 29% 30.29 in 12.0 mi SSE 15.0 mph 24.2 mph N/A   Clear
6:56 PM 58.6 °F - 50.9 °F 75% 30.31 in 12.0 mi SW 3.5 mph - N/A   Clear
7:56 PM 57.0 °F - 41.5 °F 56% 30.34 in 12.0 mi SSW 2.3 mph - N/A   Clear
8:56 PM 58.8 °F - 27.5 °F 30% 30.33 in 12.0 mi South 16.1 mph 23.0 mph N/A   Clear
9:56 PM 58.1 °F - 26.4 °F 30% 30.36 in 12.0 mi SE 5.8 mph 15.0 mph N/A   Clear
10:56 PM 58.8 °F - 35.8 °F 42% 30.36 in 12.0 mi West 5.8 mph 19.6 mph N/A   Clear
11:16 PM 66.2 °F - 32.0 °F 28% 30.35 in 12.0 mi ENE 15.0 mph 26.5 mph N/A   Clear
11:56 PM 57.0 °F - 30.2 °F 36% 30.35 in 12.0 mi SE 2.3 mph - N/A   Clear